User: anonymous   Login
Location: Unspecified
(0.0000°N, 0.0000°E)
Time: 11:15:28
(UTC+00:00)
Language:

AO-27 - Orbit

View from above orbital plane
View from above orbital plane
View from above satellite
View from above satellite

Ground track
Ground track

The orbit data is extracted from the following two-line orbital elements,

1 22825U 93061C   19081.90142285 -.00000024 +00000-0 +88509-5 0  9990
2 22825 098.8977 068.5621 0007351 252.8054 107.2323 14.30053751329134
Epoch (UTC): 22 March 2019 21:38:02
Eccentricity: 0.0007351
inclination: 98.8977°
perigee height: 786 km
apogee height: 797 km
right ascension of ascending node: 68.5621°
argument of perigee: 252.8054°
revolutions per day: 14.30053751
mean anomaly at epoch: 107.2323°
orbit number at epoch: 32913

The dashed part of the orbit path shows where the satellite is in the earth's shadow,  

DLR